Location: *
(5.0100°N, 147.1800°W)
Time: 04:34:17
(UTC+00:00)

Daily predictions for brighter satellites

Satellite Brightness Start Highest point End
(mag) Time Altitude Azimuth Time Altitude Azimuth Time Altitude Azimuth
Milstar 3 Cent rocket 3.9 04:08:54 10° NW 04:15:57 58° NNE 04:31:02 10° ESE
GPS 2-17 Rocket1 3.3 04:13:54 10° WNW 04:18:40 75° SSW 04:23:31 10° ESE
Cosmos 1455 Rocket 4.2 04:14:56 10° SSW 04:19:06 49° W 04:23:17 10° N
YAOGAN 1 3.4 04:17:34 10° SE 04:21:19 29° ENE 04:25:04 10° NNE
GPS 2-04 Rocket1 2.9 04:17:55 10° SW 04:21:44 52° SE 04:25:42 10° ENE
Cosmos 2278 Rocket 2.2 04:16:46 10° NNW 04:22:26 83° ENE 04:28:06 10° SSE
Cosmos 1452 Rocket 4.1 04:17:25 10° NNW 04:22:38 64° WSW 04:27:50 10° S
Cosmos 883 Rocket 4.5 04:16:34 10° S 04:22:44 85° E 04:28:57 10° N
KORONAS-FOTON 3.7 04:20:40 10° N 04:24:23 62° E 04:28:06 10° SSE
Centaur AC-42 4.2 04:18:31 10° WNW 04:25:46 21° NNW 04:29:17 10° NNE
USA 215 4.0 04:22:46 10° SSE 04:29:06 54° SW 04:35:26 10° NW
GPS 2-18 Rocket1 3.1 04:25:39 10° WSW 04:29:20 65° SSE 04:32:51 12° ENE
ATLAS 3B CENTAUR R/B 3.4 04:22:18 10° NW 04:29:55 31° NNE 04:33:38 11° ENE
CZ-2D R/B 3.8 04:27:49 10° SE 04:31:20 35° ENE 04:34:49 10° NNE
Meteor 2-15 4.4 04:28:52 10° S 04:34:56 79° E 04:40:58 10° N
CZ-4 R/B 4.5 04:33:42 10° S 04:37:51 86° W 04:42:00 10° NNW
Okean-O 3.4 04:35:27 10° S 04:39:47 56° WSW 04:44:06 10° NNW
Cosmos 1110 Rocket 4.1 04:34:48 10° N 04:39:50 54° ENE 04:44:51 10° SSE
Cosmos 1726 3.1 04:37:29 10° SSE 04:40:38 26° E 04:43:45 10° NE
Centaur AC-125 3.3 04:37:58 10° SSW 04:40:41 19° SSE 04:41:38 16° SE
Cosmos 304 Rocket 3.9 04:36:29 10° N 04:41:04 49° ENE 04:45:41 10° SSE
NOSS 3-1 (A) 4.4 04:34:52 10° NNW 04:43:37 85° WSW 04:52:32 10° SSE
ATLAS 5 CENTAUR R/B 3.2 04:40:58 10° NW 04:43:56 23° N 04:50:46 10° ENE
SL-08 ROCKET BODY 4.3 04:38:22 10° N 04:44:17 75° E 04:50:08 10° S
Cosmos 407 Rocket 4.2 04:40:58 10° SSE 04:45:27 29° ESE 04:49:53 10° NE
Cosmos 1943 3.7 04:42:04 10° SSW 04:47:36 62° WNW 04:53:10 10° N
Cosmos 1758 4.3 04:45:06 10° SSW 04:49:04 52° W 04:53:02 10° N
CSL-04 Rocket 3.6 04:46:44 10° SSE 04:52:00 59° ENE 04:57:12 10° N
NATO 3D Rocket 4.0 04:47:10 10° WNW 04:52:43 81° NNE 04:57:57 21° ESE
Cosmos 1892 Rocket 4.0 04:48:24 10° NNW 04:52:49 65° W 04:57:13 10° S
Cosmos 1745 Rocket 4.2 04:48:52 10° N 04:55:01 74° W 05:01:08 10° S
USA 81 4.3 04:50:00 10° N 04:55:14 73° W 05:00:30 10° S
Atlas Centaur 2 3.3 04:50:56 10° WNW 04:57:01 38° SW 05:01:25 12° SSE
ASTRO E2 4.3 04:55:21 10° SSW 04:58:04 18° SSE 04:58:04 18° SSE
SL-14 R/B 3.2 04:54:16 10° N 04:58:10 60° E 05:02:02 10° SSE
Meteor 1-24 Rocket 3.6 04:55:58 10° N 05:01:15 83° W 05:06:34 10° S
OAO 2 Rocket 3.8 04:56:22 10° NW 05:01:15 43° NE 05:03:11 30° E
CZ-4 R/B 2.5 04:58:08 10° S 05:01:53 43° WSW 05:05:33 10° NNW
BLOCK DM-SL R/B 3.8 04:59:02 10° WSW 05:03:44 56° S 05:07:27 26° ESE
Ariane H10 4.2 05:01:39 10° W 05:05:04 74° S 05:10:08 26° E
ARGOS Delta rocket 4.3 05:04:22 24° SE 05:06:47 41° ENE 05:11:36 10° N
Cosmos 1939 Rocket 3.9 05:05:14 10° S 05:09:07 47° W 05:12:55 10° NNW
CZ-3A R/B 4.4 04:41:13 10° WNW 05:10:59 37° N 05:16:40 18° NE
H-2A R/B 3.1 05:12:57 28° ENE 05:12:57 28° ENE 05:16:32 10° NNE
HJ-1C 3.8 05:15:32 48° NNE 05:15:32 48° NNE 05:18:06 10° N
Atlas 2A Centaur Rocket 3.4 05:14:58 10° WSW 05:15:49 12° SSW 05:15:49 12° SSW
Cosmos 1302 Rocket 4.1 05:11:16 10° N 05:16:25 54° ENE 05:18:01 39° SE
Cosmos 1606 Rocket 3.5 05:12:51 10° S 05:17:08 59° E 05:21:28 10° NNE
Cosmos 2228 4.0 05:13:04 10° S 05:18:55 31° NNE 05:21:21 10° NNE
Hubble Space Telescope 3.6 05:17:24 10° NW 05:18:31 11° NNW 05:19:38 10° N
OE (NEXTSAT) 4.4 05:16:34 10° SW 05:20:03 75° NW 05:20:07 74° NW
Nadezhda 1 Rocket 4.1 05:15:59 10° SSE 05:22:09 52° E 05:28:19 10° NNE
CZ-2C R/B 3.5 05:18:37 10° NNE 05:23:12 80° ESE 05:27:42 10° S
ARIANE 5 R/B 2.6 05:20:24 10° W 05:23:40 81° S 05:24:29 57° ESE
Cosmos 1953 4.1 05:21:47 10° SSW 05:25:21 32° W 05:28:55 10° NNW
SJ-11-01 4.1 05:29:34 72° E 05:29:42 72° ENE 05:34:22 10° N
Cosmos 1626 3.8 05:29:14 10° NNW 05:32:35 34° W 05:35:58 10° SSW
ATLAS 2AS CENTAUR RB 3.4 04:57:15 10° W 05:33:31 56° N 05:36:08 36° NE
Ariane H10+ 4.5 05:27:26 10° WSW 05:38:30 46° S 05:40:42 38° SSE
Ariane H10+ 3.5 05:40:24 10° WSW 05:47:04 24° SSW 05:47:25 24° SSW
Ariane Rocket 3.3 05:49:18 60° NNW 05:49:18 60° NNW 05:53:25 10° NNW
ATLAS 5 CENTAUR R/B 4.4 05:53:15 10° W 05:55:17 13° WNW 05:57:17 10° NW
IRS-1A Rocket 4.5 05:59:19 65° NW 05:59:19 65° NW 06:04:11 10° NNW
Cosmos 1140 Rocket 4.2 05:55:17 10° SSW 06:00:21 51° WNW 06:01:12 46° NW
Cosmos 1943 Rocket 4.3 06:24:08 10° NNW 06:25:30 18° NNW 06:25:30 18° NNW
ARIANE DEB (SPELDA) 4.4 06:06:41 10° W 06:29:13 64° WSW 06:29:13 64° WSW
